sat.trackr.live / text

‹ back to catalog

STARLINK-35631

NORAD 66121 · 2025-237H

PAYLOAD ACTIVE UNKNOWN

§ Identity

Operator
Country
US
Launch date
2025-10-22
Launch site
AFWTR
Launch vehicle
Mass (kg)
RCS (m²)

Purposes: comms

External: N2YO · Heavens-Above · Gunter

§ Orbital elements

Epoch: 2026-05-25T00:23:27.087936Z

Period
94.11 min
Inclination
53.1582°
Eccentricity
0.0000900
Mean motion
15.30199908 rev/d
Perigee alt
474.6 km
Apogee alt
475.8 km
Semi-major
6,853.4 km
B*
6.2462e-4
RAAN
45.2941°
Arg perigee
72.9361°
Mean anomaly
287.1739°
Rev number
3,429

§ Raw data

STARLINK-356311 66121U 25237H   26145.01628574  .00018186  00000+0  62462-3 0  99922 66121  53.1582  45.2941 0000900  72.9361 287.1739 15.30199908 34294

JSON: /api/v1/satellites/66121 · /tle

For live sub-satellite position, see the globe view (requires WebGL).

§ Visibility from observer

Set your observer location to see the next 7 days of passes ≥ 10°. The values pass through the URL so the page stays shareable.

No JS? Fill the form by hand. The geolocation button needs JavaScript.